Time,TemperatureF,DewpointF,PressureIn,WindDirection,WindDirectionDegrees,WindSpeedMPH,WindSpeedGustMPH,Humidity,HourlyPrecipIn,Conditions,Clouds,dailyrainin,SoftwareType,DateUTC
2013-10-20 00:08:00,32.2,28.0,29.88,WSW,245,15.0,-999.0,83,-99.99,,,0.00,weatherlink.com 1.10,2013-10-20 04:08:00,
2013-10-20 00:23:00,32.2,28.0,29.88,West,260,15.0,-999.0,83,-99.99,,,0.00,weatherlink.com 1.10,2013-10-20 04:23:00,
2013-10-20 00:38:00,32.3,27.0,29.88,SW,223,11.0,-999.0,82,-99.99,,,0.00,weatherlink.com 1.10,2013-10-20 04:38:00,
2013-10-20 00:53:00,32.1,27.0,29.88,WSW,244,8.0,-999.0,82,-99.99,,,0.00,weatherlink.com 1.10,2013-10-20 04:53:00,
2013-10-20 01:08:00,31.5,27.0,29.88,WSW,247,10.0,-999.0,82,-99.99,,,0.00,weatherlink.com 1.10,2013-10-20 05:08:00,
2013-10-20 01:23:00,31.2,27.0,29.89,West,262,13.0,-999.0,83,-99.99,,,0.00,weatherlink.com 1.10,2013-10-20 05:23:00,
2013-10-20 01:38:00,31.0,26.0,29.89,WNW,302,6.0,-999.0,83,-99.99,,,0.00,weatherlink.com 1.10,2013-10-20 05:38:00,
2013-10-20 01:53:00,30.8,27.0,29.90,WSW,242,12.0,-999.0,84,-99.99,,,0.00,weatherlink.com 1.10,2013-10-20 05:53:00,
2013-10-20 02:09:00,30.5,27.0,29.90,WSW,248,18.0,-999.0,86,-99.99,,,0.00,weatherlink.com 1.10,2013-10-20 06:09:00,
2013-10-20 02:24:00,30.2,27.0,29.91,WSW,256,16.0,-999.0,88,-99.99,,,0.00,weatherlink.com 1.10,2013-10-20 06:24:00,
2013-10-20 02:39:00,30.0,27.0,29.91,WSW,258,15.0,-999.0,89,-99.99,,,0.00,weatherlink.com 1.10,2013-10-20 06:39:00,
2013-10-20 02:54:00,29.7,27.0,29.91,West,281,7.0,-999.0,90,-99.99,,,0.00,weatherlink.com 1.10,2013-10-20 06:54:00,
2013-10-20 03:09:00,29.8,28.0,29.91,WSW,252,10.0,-999.0,91,-99.99,,,0.00,weatherlink.com 1.10,2013-10-20 07:09:00,
2013-10-20 03:24:00,29.6,27.0,29.91,SW,224,12.0,-999.0,91,-99.99,,,0.00,weatherlink.com 1.10,2013-10-20 07:24:00,
2013-10-20 03:39:00,29.5,28.0,29.92,West,269,10.0,-999.0,92,-99.99,,,0.00,weatherlink.com 1.10,2013-10-20 07:39:00,
2013-10-20 03:54:00,29.4,27.0,29.91,SW,230,14.0,-999.0,92,-99.99,,,0.00,weatherlink.com 1.10,2013-10-20 07:54:00,
2013-10-20 04:09:00,29.3,27.0,29.92,SW,235,9.0,-999.0,92,-99.99,,,0.00,weatherlink.com 1.10,2013-10-20 08:09:00,
2013-10-20 04:24:00,29.2,27.0,29.92,WSW,255,14.0,-999.0,92,-99.99,,,0.00,weatherlink.com 1.10,2013-10-20 08:24:00,
2013-10-20 04:39:00,28.8,27.0,29.93,WSW,250,15.0,-999.0,93,-99.99,,,0.00,weatherlink.com 1.10,2013-10-20 08:39:00,
2013-10-20 04:54:00,28.5,27.0,29.93,WSW,242,16.0,-999.0,93,-99.99,,,0.00,weatherlink.com 1.10,2013-10-20 08:54:00,
2013-10-20 05:09:00,28.6,27.0,29.93,West,276,16.0,-999.0,93,-99.99,,,0.00,weatherlink.com 1.10,2013-10-20 09:09:00,
2013-10-20 05:24:00,28.8,27.0,29.94,SW,228,7.0,-999.0,93,-99.99,,,0.00,weatherlink.com 1.10,2013-10-20 09:24:00,
2013-10-20 05:39:00,28.7,27.0,29.94,SW,235,13.0,-999.0,92,-99.99,,,0.00,weatherlink.com 1.10,2013-10-20 09:39:00,
2013-10-20 05:54:00,28.7,27.0,29.94,WSW,240,13.0,-999.0,92,-99.99,,,0.00,weatherlink.com 1.10,2013-10-20 09:54:00,
2013-10-20 06:09:00,28.4,26.0,29.95,West,260,11.0,-999.0,92,-99.99,,,0.00,weatherlink.com 1.10,2013-10-20 10:09:00,
2013-10-20 06:24:00,28.3,26.0,29.96,West,259,11.0,-999.0,92,-99.99,,,0.00,weatherlink.com 1.10,2013-10-20 10:24:00,
2013-10-20 06:39:00,28.4,26.0,29.96,WSW,254,9.0,-999.0,92,-99.99,,,0.00,weatherlink.com 1.10,2013-10-20 10:39:00,
2013-10-20 06:54:00,28.5,27.0,29.97,WSW,246,5.0,-999.0,92,-99.99,,,0.00,weatherlink.com 1.10,2013-10-20 10:54:00,
2013-10-20 07:09:00,28.5,27.0,29.97,WSW,250,12.0,-999.0,92,-99.99,,,0.00,weatherlink.com 1.10,2013-10-20 11:09:00,
2013-10-20 07:24:00,28.4,26.0,29.98,WSW,240,5.0,-999.0,92,-99.99,,,0.00,weatherlink.com 1.10,2013-10-20 11:24:00,
2013-10-20 07:39:00,28.1,26.0,29.98,SW,236,7.0,-999.0,92,-99.99,,,0.00,weatherlink.com 1.10,2013-10-20 11:39:00,
2013-10-20 07:54:00,28.1,26.0,29.98,WSW,248,7.0,-999.0,92,-99.99,,,0.00,weatherlink.com 1.10,2013-10-20 11:54:00,
2013-10-20 08:09:00,28.3,26.0,29.99,SW,227,6.0,-999.0,92,-99.99,,,0.00,weatherlink.com 1.10,2013-10-20 12:09:00,
2013-10-20 08:24:00,28.4,26.0,30.00,SW,228,7.0,-999.0,91,-99.99,,,0.00,weatherlink.com 1.10,2013-10-20 12:24:00,
2013-10-20 08:39:00,28.5,26.0,30.01,SW,223,8.0,-999.0,91,-99.99,,,0.00,weatherlink.com 1.10,2013-10-20 12:39:00,
2013-10-20 08:54:00,28.6,26.0,30.02,SW,231,6.0,-999.0,91,-99.99,,,0.00,weatherlink.com 1.10,2013-10-20 12:54:00,
2013-10-20 09:09:00,29.1,27.0,30.03,SW,226,7.0,-999.0,90,-99.99,,,0.00,weatherlink.com 1.10,2013-10-20 13:09:00,
2013-10-20 09:24:00,29.4,27.0,30.04,WSW,250,6.0,-999.0,90,-99.99,,,0.00,weatherlink.com 1.10,2013-10-20 13:24:00,
2013-10-20 09:39:00,30.1,28.0,30.05,WSW,257,6.0,-999.0,90,-99.99,,,0.00,weatherlink.com 1.10,2013-10-20 13:39:00,
2013-10-20 09:54:00,31.0,29.0,30.05,WSW,242,4.0,-999.0,90,-99.99,,,0.00,weatherlink.com 1.10,2013-10-20 13:54:00,
2013-10-20 10:09:00,32.1,30.0,30.06,WSW,244,7.0,-999.0,92,-99.99,,,0.00,weatherlink.com 1.10,2013-10-20 14:09:00,
2013-10-20 10:24:00,33.0,31.0,30.07,SW,218,7.0,-999.0,93,-99.99,,,0.00,weatherlink.com 1.10,2013-10-20 14:24:00,
2013-10-20 10:40:00,33.5,32.0,30.07,SW,221,9.0,-999.0,94,-99.99,,,0.00,weatherlink.com 1.10,2013-10-20 14:40:00,
2013-10-20 10:55:00,34.2,33.0,30.07,WSW,237,7.0,-999.0,95,-99.99,,,0.00,weatherlink.com 1.10,2013-10-20 14:55:00,
2013-10-20 11:10:00,35.5,34.0,30.08,WSW,251,8.0,-999.0,95,-99.99,,,0.00,weatherlink.com 1.10,2013-10-20 15:10:00,
2013-10-20 11:25:00,35.7,34.0,30.09,WSW,255,7.0,-999.0,95,-99.99,,,0.00,weatherlink.com 1.10,2013-10-20 15:25:00,
2013-10-20 11:40:00,37.1,36.0,30.10,West,275,4.0,-999.0,95,-99.99,,,0.00,weatherlink.com 1.10,2013-10-20 15:40:00,
2013-10-20 11:55:00,38.6,34.0,30.10,West,260,6.0,-999.0,83,-99.99,,,0.00,weatherlink.com 1.10,2013-10-20 15:55:00,
2013-10-20 12:10:00,39.3,34.0,30.10,SW,225,9.0,-999.0,80,-99.99,,,0.00,weatherlink.com 1.10,2013-10-20 16:10:00,
2013-10-20 12:25:00,39.8,32.0,30.11,West,280,2.0,-999.0,75,-99.99,,,0.00,weatherlink.com 1.10,2013-10-20 16:25:00,
2013-10-20 12:40:00,40.9,32.0,30.11,SW,234,8.0,-999.0,70,-99.99,,,0.00,weatherlink.com 1.10,2013-10-20 16:40:00,
2013-10-20 12:55:00,41.1,32.0,30.11,SW,228,1.0,-999.0,69,-99.99,,,0.00,weatherlink.com 1.10,2013-10-20 16:55:00,
2013-10-20 13:10:00,43.5,32.0,30.10,SW,223,6.0,-999.0,65,-99.99,,,0.00,weatherlink.com 1.10,2013-10-20 17:10:00,
2013-10-20 13:25:00,42.4,30.0,30.10,WNW,283,6.0,-999.0,62,-99.99,,,0.00,weatherlink.com 1.10,2013-10-20 17:25:00,
2013-10-20 13:40:00,44.5,30.0,30.09,SW,236,1.0,-999.0,58,-99.99,,,0.00,weatherlink.com 1.10,2013-10-20 17:40:00,
2013-10-20 13:55:00,45.2,31.0,30.09,SW,226,6.0,-999.0,58,-99.99,,,0.00,weatherlink.com 1.10,2013-10-20 17:55:00,
2013-10-20 14:10:00,46.6,31.0,30.09,SW,218,3.0,-999.0,54,-99.99,,,0.00,weatherlink.com 1.10,2013-10-20 18:10:00,
2013-10-20 14:25:00,46.1,30.0,30.09,SSW,211,10.0,-999.0,54,-99.99,,,0.00,weatherlink.com 1.10,2013-10-20 18:25:00,
2013-10-20 14:40:00,46.7,30.0,30.09,SW,231,8.0,-999.0,53,-99.99,,,0.00,weatherlink.com 1.10,2013-10-20 18:40:00,
2013-10-20 14:55:00,46.3,30.0,30.09,SW,229,6.0,-999.0,53,-99.99,,,0.00,weatherlink.com 1.10,2013-10-20 18:55:00,
2013-10-20 15:10:00,46.7,30.0,30.09,SW,225,6.0,-999.0,53,-99.99,,,0.00,weatherlink.com 1.10,2013-10-20 19:10:00,
2013-10-20 15:25:00,47.2,29.0,30.09,SW,219,9.0,-999.0,50,-99.99,,,0.00,weatherlink.com 1.10,2013-10-20 19:25:00,
2013-10-20 15:40:00,47.0,29.0,30.09,WNW,302,3.0,-999.0,49,-99.99,,,0.00,weatherlink.com 1.10,2013-10-20 19:40:00,
2013-10-20 15:55:00,47.2,28.0,30.09,WSW,244,9.0,-999.0,48,-99.99,,,0.00,weatherlink.com 1.10,2013-10-20 19:55:00,
2013-10-20 16:10:00,47.3,29.0,30.09,WSW,258,9.0,-999.0,49,-99.99,,,0.00,weatherlink.com 1.10,2013-10-20 20:10:00,
2013-10-20 16:25:00,47.0,29.0,30.10,WSW,254,10.0,-999.0,50,-99.99,,,0.00,weatherlink.com 1.10,2013-10-20 20:25:00,
2013-10-20 16:40:00,46.4,29.0,30.10,SW,232,9.0,-999.0,51,-99.99,,,0.00,weatherlink.com 1.10,2013-10-20 20:40:00,
2013-10-20 16:55:00,46.2,29.0,30.10,SW,232,12.0,-999.0,51,-99.99,,,0.00,weatherlink.com 1.10,2013-10-20 20:55:00,
2013-10-20 17:10:00,46.1,29.0,30.10,SW,233,9.0,-999.0,52,-99.99,,,0.00,weatherlink.com 1.10,2013-10-20 21:10:00,
2013-10-20 17:25:00,45.9,29.0,30.10,SW,236,9.0,-999.0,52,-99.99,,,0.00,weatherlink.com 1.10,2013-10-20 21:25:00,
2013-10-20 17:40:00,45.2,29.0,30.10,SW,235,9.0,-999.0,54,-99.99,,,0.00,weatherlink.com 1.10,2013-10-20 21:40:00,
2013-10-20 17:55:00,44.2,29.0,30.10,WSW,248,4.0,-999.0,55,-99.99,,,0.00,weatherlink.com 1.10,2013-10-20 21:55:00,
2013-10-20 18:10:00,43.7,30.0,30.11,SW,234,6.0,-999.0,58,-99.99,,,0.00,weatherlink.com 1.10,2013-10-20 22:10:00,
2013-10-20 18:25:00,41.9,30.0,30.11,SW,235,5.0,-999.0,62,-99.99,,,0.00,weatherlink.com 1.10,2013-10-20 22:25:00,
2013-10-20 18:40:00,40.8,29.0,30.11,WSW,237,4.0,-999.0,64,-99.99,,,0.00,weatherlink.com 1.10,2013-10-20 22:40:00,
2013-10-20 18:55:00,39.9,30.0,30.11,WSW,240,4.0,-999.0,67,-99.99,,,0.00,weatherlink.com 1.10,2013-10-20 22:55:00,
2013-10-20 19:10:00,39.5,29.0,30.12,WSW,251,5.0,-999.0,67,-99.99,,,0.00,weatherlink.com 1.10,2013-10-20 23:10:00,
2013-10-20 19:25:00,39.1,29.0,30.12,West,265,1.0,-999.0,68,-99.99,,,0.00,weatherlink.com 1.10,2013-10-20 23:25:00,
2013-10-20 19:40:00,38.9,29.0,30.12,WSW,248,5.0,-999.0,69,-99.99,,,0.00,weatherlink.com 1.10,2013-10-20 23:40:00,
2013-10-20 19:56:00,38.8,29.0,30.12,WSW,255,7.0,-999.0,69,-99.99,,,0.00,weatherlink.com 1.10,2013-10-20 23:56:00,
2013-10-20 20:11:00,38.8,29.0,30.13,WSW,241,4.0,-999.0,68,-99.99,,,0.00,weatherlink.com 1.10,2013-10-21 00:11:00,
2013-10-20 20:26:00,38.6,29.0,30.13,WSW,248,3.0,-999.0,68,-99.99,,,0.00,weatherlink.com 1.10,2013-10-21 00:26:00,
2013-10-20 20:41:00,38.2,29.0,30.14,WSW,244,3.0,-999.0,69,-99.99,,,0.00,weatherlink.com 1.10,2013-10-21 00:41:00,
2013-10-20 20:56:00,38.5,29.0,30.13,WSW,240,5.0,-999.0,68,-99.99,,,0.00,weatherlink.com 1.10,2013-10-21 00:56:00,
2013-10-20 21:11:00,38.6,28.0,30.13,WSW,237,6.0,-999.0,65,-99.99,,,0.00,weatherlink.com 1.10,2013-10-21 01:11:00,
2013-10-20 21:26:00,38.5,28.0,30.13,WSW,242,2.0,-999.0,66,-99.99,,,0.00,weatherlink.com 1.10,2013-10-21 01:26:00,
2013-10-20 21:41:00,38.4,27.0,30.14,WSW,239,4.0,-999.0,65,-99.99,,,0.00,weatherlink.com 1.10,2013-10-21 01:41:00,
2013-10-20 21:56:00,38.6,27.0,30.14,WSW,240,4.0,-999.0,64,-99.99,,,0.00,weatherlink.com 1.10,2013-10-21 01:56:00,
2013-10-20 22:11:00,38.5,27.0,30.14,WSW,240,2.0,-999.0,63,-99.99,,,0.00,weatherlink.com 1.10,2013-10-21 02:11:00,
2013-10-20 22:26:00,38.4,27.0,30.14,WSW,244,4.0,-999.0,64,-99.99,,,0.00,weatherlink.com 1.10,2013-10-21 02:26:00,
2013-10-20 22:41:00,38.4,26.0,30.14,SW,236,4.0,-999.0,62,-99.99,,,0.00,weatherlink.com 1.10,2013-10-21 02:41:00,
2013-10-20 22:56:00,38.3,27.0,30.15,WSW,246,2.0,-999.0,64,-99.99,,,0.00,weatherlink.com 1.10,2013-10-21 02:56:00,
2013-10-20 23:11:00,38.0,26.0,30.14,WSW,248,3.0,-999.0,63,-99.99,,,0.00,weatherlink.com 1.10,2013-10-21 03:11:00,
2013-10-20 23:26:00,37.9,26.0,30.14,SW,230,4.0,-999.0,62,-99.99,,,0.00,weatherlink.com 1.10,2013-10-21 03:26:00,
2013-10-20 23:41:00,38.5,26.0,30.14,SW,224,5.0,-999.0,62,-99.99,,,0.00,weatherlink.com 1.10,2013-10-21 03:41:00,
2013-10-20 23:56:00,38.9,26.0,30.14,SW,216,6.0,-999.0,60,-99.99,,,0.00,weatherlink.com 1.10,2013-10-21 03:56:00,